OPS 4682 DEB, 14717

Orbit data source: Space-Track

OPS 4682 DEB, 14717 is space debris in LEO originally from a launch on Sat, 03 Apr 1965 UTC launched from the Air Force Western Test Range (AFWTR). Debris objects in space refer to the collection of defunct objects orbiting the Earth. Examples of debris include non-operational satellites, rocket bodies, and fragments generated from explosions, collisions, or faulty payload assembly.

Loading next visibility...
Identifier
14717, 1965-027Q
Orbit
LEO
Country
Flag of USUS
Related business
Manufacturer
Unknown
Mission
Spacecraft
Bus & Motor
Unknown
Mass
Unknown
Launch date (UTC)
1965-04-03 (61 years ago)
Launch vehicle
Unknown
Launch site
Air Force Western Test Range (AFWTR)
Object type
Payload
Rocket body
Debris
Shape & HBR
Unknown shape, 0.1 m
Radar Cross Section
Small (<0.1 m²)

Expand to show TLE details & history
Last TLE update: 9 hours ago

TLE from 9 hours ago
0 OPS 4682 DEB
1 14717U 65027Q   25293.16816767  .00000374  00000-0  12646-2 0  9998
2 14717  90.2402 345.5221 0031157   1.8842  54.7689 12.97352157 84969
Epoch: 2025-10-20T04:02Z
TLE epoch observation values (Epoch: 2025-10-20T04:02:09.686Z)
Latitude
57.03497°
Longitude
-104.26113°
Altitude
1,268.393 km
Speed
7.233 km/s
True Right ascension
23h 00m 36s
True Declination
56° 53' 18"
Sunlit
Object was in full shadow at epoch
Visualization orbit readout
Latitude
Unknown
Longitude
Unknown
Altitude
Unknown
Speed
Unknown
Apparent Right ascension
Unknown
Apparent Declination
Unknown
Sunlit
N/A
Visualization observer readout
Local Sidereal Time
08:25:53
Azimuth
Unknown
Elevation
Unknown
Doppler factor
Unknown
Orbital elements
Apogee altitude
1,293.438 km
Perigee altitude
1,245.781 km
Semi-major axis
7,647.747 km
Eccentricity
0.00312
Inclination
90.2402°
RAAN
345.5221°
Arg. of periapsis
1.8842°
True anomaly
55.06119°
Mean anomaly
54.7689°
Eccentric anomaly
54.91498°
Mean motion
3.24521 °/min
Orbital period
110.93 mins
BSTAR
0.0012646
Loading maneuver chart data...
Computing Atmospheric mass density...
Loading historical data...
Loading historical data...
Loading historical data...
Loading historical data...
Loading historical data...
Loading historical data...
Loading historical data...

Documentation

Showing up to 5 results
|